Weather History for KPYX - November, 2011

Change the Weather History Date:

Thursday, November 10, 2011

  Actual Average Record
Temperature  
Mean Temperature 47 °F -  
Max Temperature 62 °F 56 °F 82 °F (2014)
Min Temperature 32 °F 30 °F 19 °F (1987)
Degree Days  
Heating Degree Days 18    
Moisture  
Dew Point 29 °F    
Average Humidity 63    
Maximum Humidity 87    
Minimum Humidity 23    
Precipitation  
Precipitation 0.00 in - - ()
Sea Level Pressure  
Sea Level Pressure 30.29 in    
Wind  
Wind Speed 10 mph (WSW)    
Max Wind Speed 22 mph    
Max Gust Speed 26 mph    
Visibility 10 miles    
Events      
Averages and records for this station are not official NWS values.
T = Trace of Precipitation, MM = Missing Value Source: NWS Daily Summary

Daily Weather History Graph

Daily Weather History Graph

Search for Another Location

Airport or City:

Trip Planner

Search our weather history database for the weather conditions in past years. The results will help you decide how hot, cold, wet, or windy it might be!

Date:

Astronomy

Nov. 10, 2011 Rise Set
Actual Time 7:14 AM CST 5:38 PM CST
Civil Twilight 6:47 AM CST 6:05 PM CST
Nautical Twilight 6:16 AM CST 6:36 PM CST
Astronomical Twilight 5:46 AM CST 7:06 PM CST
Moon 5:29 PM CST (11/10) 7:07 AM CST (11/10)
Length of Visible Light 11h 17m
Length of Day
10h 23m
Full, 100% of the Moon is Illuminated
Nov 10
Full
Nov 10
Full
Nov 18
Last Quarter
Nov 25
New
Dec 2
First Quarter

Hourly Weather History & Observations

Time (CST) Temp. Windchill Dew Point Humidity Pressure Visibility Wind Dir Wind Speed Gust Speed Precip Events Conditions
12:15 AM 32.0 °F 25.6 °F 28.4 °F 87% 30.43 in 10.0 mi West 6.9 mph - N/A   Clear
12:35 AM 32.0 °F 26.4 °F 28.4 °F 87% 30.43 in 10.0 mi West 5.8 mph - N/A   Clear
12:55 AM 32.0 °F 25.6 °F 28.4 °F 87% 30.43 in 10.0 mi West 6.9 mph - N/A   Clear
1:15 AM 32.0 °F 26.4 °F 28.4 °F 87% 30.43 in 10.0 mi West 5.8 mph - N/A   Clear
1:35 AM 32.0 °F 24.2 °F 28.4 °F 87% 30.43 in 10.0 mi West 9.2 mph - N/A   Clear
1:55 AM 32.0 °F 24.8 °F 28.4 °F 87% 30.43 in 10.0 mi West 8.1 mph - N/A   Clear
2:15 AM 32.0 °F 25.6 °F 28.4 °F 87% 30.43 in 10.0 mi West 6.9 mph - N/A   Clear
2:35 AM 32.0 °F 24.2 °F 28.4 °F 87% 30.43 in 10.0 mi West 9.2 mph - N/A   Clear
2:55 AM 32.0 °F 24.2 °F 28.4 °F 87% 30.42 in 10.0 mi West 9.2 mph - N/A   Clear
3:15 AM 32.0 °F 24.2 °F 28.4 °F 87% 30.42 in 10.0 mi West 9.2 mph - N/A   Clear
3:35 AM 33.8 °F 26.4 °F 26.6 °F 75% 30.41 in 10.0 mi West 9.2 mph - N/A   Clear
3:55 AM 32.0 °F 24.2 °F 26.6 °F 80% 30.41 in 10.0 mi West 9.2 mph - N/A   Clear
4:15 AM 32.0 °F 23.6 °F 26.6 °F 80% 30.40 in 10.0 mi West 10.4 mph - N/A   Clear
4:35 AM 32.0 °F 23.6 °F 26.6 °F 80% 30.40 in 10.0 mi West 10.4 mph - N/A   Clear
4:55 AM 32.0 °F 23.6 °F 26.6 °F 80% 30.40 in 10.0 mi West 10.4 mph - N/A   Clear
5:15 AM 33.8 °F 26.4 °F 26.6 °F 75% 30.40 in 10.0 mi West 9.2 mph - N/A   Clear
6:15 AM 32.0 °F 24.2 °F 26.6 °F 80% 30.39 in 10.0 mi WSW 9.2 mph - N/A   Clear
6:35 AM 32.0 °F 24.8 °F 26.6 °F 80% 30.39 in 10.0 mi SW 8.1 mph - N/A   Clear
6:55 AM 32.0 °F 24.8 °F 26.6 °F 80% 30.39 in 10.0 mi WSW 8.1 mph - N/A   Clear
7:15 AM 32.0 °F 23.6 °F 26.6 °F 80% 30.39 in 10.0 mi SW 10.4 mph - N/A   Clear
7:35 AM 32.0 °F 24.8 °F 26.6 °F 80% 30.39 in 10.0 mi SW 8.1 mph - N/A   Clear
7:55 AM 32.0 °F 24.2 °F 28.4 °F 87% 30.39 in 10.0 mi SW 9.2 mph - N/A   Clear
8:15 AM 33.8 °F 27.0 °F 28.4 °F 81% 30.39 in 10.0 mi SW 8.1 mph - N/A   Clear
8:35 AM 33.8 °F 25.3 °F 28.4 °F 81% 30.39 in 10.0 mi SW 11.5 mph - N/A   Clear
8:55 AM 35.6 °F 26.6 °F 30.2 °F 81% 30.39 in 10.0 mi SW 13.8 mph - N/A   Clear
9:35 AM 41.0 °F 32.8 °F 32.0 °F 70% 30.38 in 10.0 mi SW 16.1 mph - N/A   Clear
9:55 AM 42.8 °F 34.8 °F 32.0 °F 66% 30.37 in 10.0 mi WSW 17.3 mph 21.9 mph N/A   Clear
10:15 AM 44.6 °F 37.8 °F 32.0 °F 61% 30.37 in 10.0 mi WSW 15.0 mph - N/A   Clear
10:35 AM 48.2 °F - 32.0 °F 54% 30.36 in 10.0 mi WSW 17.3 mph - N/A   Clear
10:55 AM 50.0 °F - 33.8 °F 54% 30.36 in 10.0 mi WSW 18.4 mph - N/A   Clear
11:15 AM 51.8 °F - 33.8 °F 50% 30.35 in 10.0 mi WSW 19.6 mph - N/A   Clear
11:35 AM 53.6 °F - 33.8 °F 47% 30.34 in 10.0 mi West 21.9 mph 25.3 mph N/A   Clear
11:55 AM 55.4 °F - 33.8 °F 44% 30.33 in 10.0 mi West 21.9 mph 26.5 mph N/A   Clear
12:15 PM 55.4 °F - 33.8 °F 44% 30.32 in 10.0 mi WSW 19.6 mph 23.0 mph N/A   Clear
12:35 PM 57.2 °F - 33.8 °F 41% 30.30 in 10.0 mi WSW 18.4 mph - N/A   Clear
12:55 PM 59.0 °F - 32.0 °F 36% 30.29 in 10.0 mi West 17.3 mph 20.7 mph N/A   Clear
1:15 PM 60.8 °F - 32.0 °F 34% 30.28 in 10.0 mi West 13.8 mph 20.7 mph N/A   Clear
1:35 PM 60.8 °F - 30.2 °F 31% 30.27 in 10.0 mi West 12.7 mph - N/A   Clear
1:55 PM 60.8 °F - 30.2 °F 31% 30.25 in 10.0 mi West 11.5 mph - N/A   Clear
2:15 PM 60.8 °F - 30.2 °F 31% 30.24 in 10.0 mi West 12.7 mph - N/A   Clear
2:35 PM 60.8 °F - 28.4 °F 29% 30.23 in 10.0 mi West 9.2 mph - N/A   Clear
3:15 PM 62.6 °F - 26.6 °F 26% 30.21 in 10.0 mi West 11.5 mph - N/A   Clear
3:35 PM 62.6 °F - 26.6 °F 26% 30.20 in 10.0 mi WSW 9.2 mph - N/A   Clear
3:55 PM 62.6 °F - 24.8 °F 24% 30.19 in 10.0 mi West 10.4 mph - N/A   Clear
4:15 PM 62.6 °F - 26.6 °F 26% 30.19 in 10.0 mi WSW 8.1 mph - N/A   Clear
4:35 PM 60.8 °F - 23.0 °F 23% 30.19 in 10.0 mi West 10.4 mph - N/A   Clear
4:55 PM 59.0 °F - 28.4 °F 31% 30.18 in 10.0 mi WSW 5.8 mph - N/A   Clear
5:15 PM 57.2 °F - 26.6 °F 31% 30.17 in 10.0 mi SW 4.6 mph - N/A   Clear
5:35 PM 51.8 °F - 32.0 °F 47% 30.16 in 10.0 mi SSW 9.2 mph - N/A   Clear
5:55 PM 48.2 °F - 32.0 °F 54% 30.16 in 10.0 mi SSW 6.9 mph - N/A   Clear
6:15 PM 46.4 °F 42.4 °F 32.0 °F 57% 30.16 in 10.0 mi SSW 8.1 mph - N/A   Clear
6:35 PM 42.8 °F 37.5 °F 32.0 °F 66% 30.15 in 10.0 mi SSW 9.2 mph - N/A   Clear
6:55 PM 41.0 °F 35.8 °F 32.0 °F 70% 30.15 in 10.0 mi SSW 8.1 mph - N/A   Clear
7:15 PM 41.0 °F 34.7 °F 32.0 °F 70% 30.14 in 10.0 mi SW 10.4 mph - N/A   Clear
7:35 PM 41.0 °F 35.2 °F 32.0 °F 70% 30.14 in 10.0 mi SW 9.2 mph - N/A   Clear
7:55 PM 41.0 °F 35.2 °F 30.2 °F 65% 30.13 in 10.0 mi SW 9.2 mph - N/A   Clear
8:15 PM 39.2 °F 34.2 °F 30.2 °F 70% 30.13 in 10.0 mi SW 6.9 mph - N/A   Clear
8:35 PM 39.2 °F 35.0 °F 30.2 °F 70% 30.12 in 10.0 mi SSW 5.8 mph - N/A   Clear
8:55 PM 37.4 °F 30.3 °F 30.2 °F 75% 30.12 in 10.0 mi SW 10.4 mph - N/A   Clear
9:15 PM 37.4 °F 30.8 °F 30.2 °F 75% 30.12 in 10.0 mi SW 9.2 mph - N/A   Clear
9:55 PM 35.6 °F 28.0 °F 30.2 °F 81% 30.11 in 10.0 mi SSW 10.4 mph - N/A   Clear
10:15 PM 37.4 °F 29.3 °F 28.4 °F 70% 30.11 in 10.0 mi SW 12.7 mph - N/A   Clear
10:35 PM 39.2 °F 32.0 °F 28.4 °F 65% 30.10 in 10.0 mi SW 11.5 mph - N/A   Clear
10:55 PM 39.2 °F 32.0 °F 28.4 °F 65% 30.10 in 10.0 mi SW 11.5 mph - N/A   Clear
11:15 PM 37.4 °F 30.3 °F 28.4 °F 70% 30.09 in 10.0 mi SW 10.4 mph - N/A   Clear
11:35 PM 37.4 °F 30.8 °F 28.4 °F 70% 30.08 in 10.0 mi SW 9.2 mph - N/A   Clear
11:55 PM 37.4 °F 30.3 °F 28.4 °F 70% 30.07 in 10.0 mi SW 10.4 mph - N/A   Clear